Meteo pe oră la Alimos

Astăzi, 26 Ianuarie, Marţi

Timp Temperatura Precipitaţii Vânt Presiune Umiditate
00:00 +13°C° 0 mm 5 m/s 755 mmHg 71%
01:00 +12°C° 0 mm 5 m/s 755 mmHg 72%
02:00 +12°C° 0 mm 5 m/s 755 mmHg 73%
03:00 +12°C° 0 mm 5 m/s 754 mmHg 73%
04:00 +11°C° 0 mm 6 m/s 754 mmHg 73%
05:00 +11°C° 0 mm 6 m/s 754 mmHg 73%
06:00 +11°C° 0 mm 7 m/s 754 mmHg 73%
07:00 +12°C° 0 mm 7 m/s 754 mmHg 72%
08:00 +12°C° 0 mm 8 m/s 753 mmHg 72%
09:00 +13°C° 0 mm 9 m/s 753 mmHg 70%
10:00 +13°C° 0 mm 10 m/s 753 mmHg 69%
11:00 +14°C° 0 mm 10 m/s 753 mmHg 67%
12:00 +16°C° 0 mm 11 m/s 753 mmHg 68%
13:00 +16°C° 0 mm 11 m/s 752 mmHg 69%
14:00 +15°C° 0 mm 12 m/s 751 mmHg 69%
15:00 +15°C° 0.1 mm 12 m/s 750 mmHg 72%
16:00 +14°C° 0.1 mm 12 m/s 749 mmHg 74%
17:00 +14°C° 0.1 mm 12 m/s 749 mmHg 76%
18:00 +14°C° 0.3 mm 12 m/s 748 mmHg 77%
19:00 +14°C° 0.3 mm 13 m/s 747 mmHg 78%
20:00 +14°C° 0.3 mm 14 m/s 746 mmHg 79%
21:00 +13°C° 1 mm 13 m/s 745 mmHg 81%
22:00 +13°C° 1 mm 12 m/s 745 mmHg 84%
23:00 +12°C° 1 mm 10 m/s 744 mmHg 86%

Mâine, 27 Ianuarie, Miercuri

Timp Temperatura Precipitaţii Vânt Presiune Umiditate
00:00 +12°C° 1.5 mm 9 m/s 744 mmHg 83%
01:00 +11°C° 1.5 mm 8 m/s 744 mmHg 79%
02:00 +10°C° 1.5 mm 7 m/s 744 mmHg 75%
03:00 +9°C° 0.1 mm 7 m/s 744 mmHg 76%
04:00 +8°C° 0.1 mm 7 m/s 744 mmHg 77%
05:00 +6°C° 0.1 mm 7 m/s 745 mmHg 77%
06:00 +5°C° 0.2 mm 6 m/s 746 mmHg 77%
07:00 +4°C° 0.2 mm 6 m/s 746 mmHg 77%
08:00 +3°C° 0.2 mm 5 m/s 747 mmHg 77%
09:00 +3°C° 0.1 mm 6 m/s 748 mmHg 74%
10:00 +3°C° 0.1 mm 7 m/s 748 mmHg 71%
11:00 +4°C° 0.1 mm 7 m/s 748 mmHg 68%
12:00 +4°C° 0.1 mm 8 m/s 749 mmHg 66%
13:00 +4°C° 0.1 mm 8 m/s 749 mmHg 64%
14:00 +5°C° 0.1 mm 8 m/s 749 mmHg 61%
15:00 +5°C° 0.1 mm 9 m/s 750 mmHg 60%
16:00 +3°C° 0.1 mm 9 m/s 750 mmHg 59%
17:00 +3°C° 0.1 mm 9 m/s 751 mmHg 58%
18:00 +4°C° 0 mm 8 m/s 752 mmHg 59%
19:00 +4°C° 0 mm 7 m/s 752 mmHg 59%
20:00 +3°C° 0 mm 6 m/s 753 mmHg 59%
21:00 +3°C° 0 mm 6 m/s 753 mmHg 58%
22:00 +3°C° 0 mm 5 m/s 754 mmHg 56%
23:00 +4°C° 0 mm 4 m/s 754 mmHg 55%

Poimâine, 28 Ianuarie, Joi

Timp Temperatura Precipitaţii Vânt Presiune Umiditate
00:00 +4°C° 0 mm 4 m/s 754 mmHg 54%
01:00 +4°C° 0 mm 3 m/s 754 mmHg 54%
02:00 +4°C° 0 mm 3 m/s 755 mmHg 53%
03:00 +3°C° 0 mm 3 m/s 755 mmHg 53%
04:00 +3°C° 0 mm 3 m/s 755 mmHg 53%
05:00 +3°C° 0 mm 3 m/s 755 mmHg 52%
06:00 +3°C° 0 mm 3 m/s 755 mmHg 52%
07:00 +3°C° 0 mm 3 m/s 755 mmHg 52%
08:00 +3°C° 0 mm 3 m/s 756 mmHg 52%
09:00 +5°C° 0 mm 2 m/s 756 mmHg 47%
10:00 +7°C° 0 mm 2 m/s 756 mmHg 42%
11:00 +8°C° 0 mm 2 m/s 756 mmHg 37%
12:00 +8°C° 0 mm 3 m/s 756 mmHg 35%
13:00 +9°C° 0 mm 3 m/s 756 mmHg 32%
14:00 +10°C° 0 mm 4 m/s 756 mmHg 30%
15:00 +9°C° 0 mm 3 m/s 756 mmHg 33%
16:00 +9°C° 0 mm 3 m/s 756 mmHg 36%
17:00 +9°C° 0 mm 3 m/s 756 mmHg 39%
18:00 +8°C° 0 mm 3 m/s 757 mmHg 41%
19:00 +7°C° 0 mm 3 m/s 757 mmHg 44%
20:00 +7°C° 0 mm 3 m/s 758 mmHg 46%
21:00 +5°C° 0 mm 3 m/s 758 mmHg 47%
22:00 +6°C° 0 mm 2 m/s 758 mmHg 49%
23:00 +6°C° 0 mm 2 m/s 758 mmHg 50%

29 Ianuarie, Vineri

Timp Temperatura Precipitaţii Vânt Presiune Umiditate
00:00 +5°C° 0 mm 3 m/s 758 mmHg 53%
01:00 +5°C° 0 mm 3 m/s 758 mmHg 56%
02:00 +5°C° 0 mm 3 m/s 758 mmHg 59%
03:00 +5°C° 0 mm 3 m/s 758 mmHg 61%
04:00 +7°C° 0 mm 3 m/s 758 mmHg 63%
05:00 +7°C° 0 mm 3 m/s 758 mmHg 65%
06:00 +7°C° 0 mm 3 m/s 758 mmHg 67%
07:00 +7°C° 0 mm 2 m/s 758 mmHg 68%
08:00 +7°C° 0 mm 2 m/s 758 mmHg 70%
09:00 +8°C° 0 mm 2 m/s 758 mmHg 66%
10:00 +10°C° 0 mm 3 m/s 757 mmHg 62%
11:00 +11°C° 0 mm 3 m/s 757 mmHg 59%
12:00 +12°C° 0 mm 3 m/s 757 mmHg 58%
13:00 +12°C° 0 mm 3 m/s 757 mmHg 57%
14:00 +14°C° 0 mm 2 m/s 756 mmHg 56%
15:00 +14°C° 0 mm 2 m/s 756 mmHg 58%
16:00 +13°C° 0 mm 2 m/s 755 mmHg 61%
17:00 +13°C° 0 mm 1 m/s 755 mmHg 64%
18:00 +12°C° 0 mm 1 m/s 755 mmHg 67%
19:00 +12°C° 0 mm 1 m/s 755 mmHg 71%
20:00 +11°C° 0 mm 1 m/s 755 mmHg 74%
21:00 +11°C° 0 mm 1 m/s 755 mmHg 76%
22:00 +11°C° 0 mm 1 m/s 755 mmHg 77%
23:00 +10°C° 0 mm 2 m/s 755 mmHg 79%

30 Ianuarie, Sâmbătă

Timp Temperatura Precipitaţii Vânt Presiune Umiditate
00:00 +11°C° 0 mm 1 m/s 754 mmHg 81%
01:00 +11°C° 0 mm 1 m/s 754 mmHg 83%
02:00 +11°C° 0 mm 1 m/s 753 mmHg 84%
03:00 +11°C° 0 mm 1 m/s 753 mmHg 84%
04:00 +10°C° 0 mm 2 m/s 752 mmHg 84%
05:00 +12°C° 0 mm 2 m/s 751 mmHg 83%
06:00 +12°C° 0 mm 2 m/s 750 mmHg 84%
07:00 +11°C° 0 mm 3 m/s 750 mmHg 84%
08:00 +11°C° 0 mm 3 m/s 750 mmHg 84%
09:00 +13°C° 0 mm 4 m/s 749 mmHg 80%
10:00 +14°C° 0 mm 4 m/s 749 mmHg 76%
11:00 +17°C° 0 mm 4 m/s 749 mmHg 71%
12:00 +17°C° 0 mm 4 m/s 748 mmHg 68%
13:00 +18°C° 0 mm 3 m/s 748 mmHg 65%
14:00 +19°C° 0 mm 3 m/s 748 mmHg 61%
15:00 +18°C° 0 mm 3 m/s 748 mmHg 62%
16:00 +18°C° 0 mm 4 m/s 749 mmHg 62%
17:00 +17°C° 0 mm 4 m/s 749 mmHg 63%
18:00 +15°C° 0 mm 4 m/s 750 mmHg 68%
19:00 +13°C° 0 mm 4 m/s 751 mmHg 74%
20:00 +12°C° 0 mm 4 m/s 752 mmHg 79%
21:00 +12°C° 0 mm 3 m/s 753 mmHg 78%
22:00 +11°C° 0 mm 3 m/s 754 mmHg 77%
23:00 +11°C° 0 mm 3 m/s 754 mmHg 76%

31 Ianuarie, Duminică

Timp Temperatura Precipitaţii Vânt Presiune Umiditate
00:00 +11°C° 0 mm 3 m/s 755 mmHg 76%
01:00 +10°C° 0 mm 2 m/s 755 mmHg 77%
02:00 +10°C° 0 mm 2 m/s 755 mmHg 77%
03:00 +10°C° 0 mm 2 m/s 755 mmHg 78%
04:00 +10°C° 0 mm 2 m/s 755 mmHg 78%
05:00 +11°C° 0 mm 1 m/s 755 mmHg 79%
06:00 +10°C° 0 mm 2 m/s 755 mmHg 79%
07:00 +10°C° 0 mm 2 m/s 755 mmHg 78%
08:00 +12°C° 0 mm 2 m/s 755 mmHg 78%
09:00 +12°C° 0 mm 2 m/s 755 mmHg 76%
10:00 +13°C° 0 mm 2 m/s 755 mmHg 74%
11:00 +14°C° 0 mm 2 m/s 755 mmHg 72%
12:00 +14°C° 0 mm 2 m/s 755 mmHg 73%
13:00 +14°C° 0 mm 3 m/s 754 mmHg 74%
14:00 +14°C° 0 mm 3 m/s 754 mmHg 76%
15:00 +14°C° 0 mm 3 m/s 753 mmHg 77%
16:00 +14°C° 0 mm 3 m/s 753 mmHg 78%
17:00 +15°C° 0 mm 2 m/s 753 mmHg 79%
18:00 +14°C° 0.2 mm 3 m/s 753 mmHg 82%
19:00 +14°C° 0.2 mm 3 m/s 753 mmHg 85%
20:00 +14°C° 0.2 mm 3 m/s 753 mmHg 87%
21:00 +14°C° 0.4 mm 3 m/s 752 mmHg 88%
22:00 +14°C° 0.4 mm 3 m/s 752 mmHg 89%
23:00 +14°C° 0.4 mm 3 m/s 752 mmHg 89%
Arată mai mult

Formular de consimțământ

Meteoprog și furnizorii noștri de servicii pot stoca și accesa date personale, precum cookies, identificatori de dispozitiv sau alte tehnologii similare pe dispozitivul dumneavoastră și procesa astfel de date pentru a personaliza conținutul și reclamele, dar și pentru a oferi caracteristici de social media și pentru a analiza traficul.

  • Stocarea și/sau accesarea informațiilor pe dispozitivul dumneavoastră

    Cookies, identificatori de dispozitiv sau alte informații pot fi stocate sau accesate pe dispozitiv în scopurile indicate mai sus.

  • Reclame și conținut personalizat, evaluarea reclamelor și a conținutului, informații despre audiențe și dezvoltarea produselor

    Reclamele și conținutul pot fi personalizate pe baza unui profil. Pot fi adăugate date suplimentare pentru a personaliza mai bine reclamele și conținutul. Performanța reclamelor și conținutului poate fi măsurată. Pot fi obținute informații despre utilizatorii care au văzut reclamele și conținutul. Aceste date pot fi utilizate pentru a dezvolta sau îmbunătăți experiența utilizatorilor, sistemele și software-ul.

Dând clic pe ‘Sunt de acord’, permiteți utilizarea cookie-urilor menționate, a identificatorilor de dispozitiv, balizelor web sau altor tehnologii similare. Setările pot fi modificate din browser-ul dispozitivului dumneavoastră.

În anumite scopuri, interesele legitime pot prima asupra consimțământului. Puteți citi mai multe informații în acest sens în Politica privind Confidențialitatea Datelor și Cookie.